Time,TemperatureF,DewpointF,PressureIn,WindDirection,WindDirectionDegrees,WindSpeedMPH,WindSpeedGustMPH,Humidity,HourlyPrecipIn,Conditions,Clouds,dailyrainin,SolarRadiationWatts/m^2,SoftwareType,DateUTC
2013-06-27 00:00:00,70.2,67.4,29.58,North,0,0.0,0.0,91,0.00,,,0.00,0,WeatherCatV1.12B45,2013-06-27 04:00:00,
2013-06-27 00:05:00,70.2,67.4,29.58,North,0,0.0,0.0,91,0.00,,,0.00,0,WeatherCatV1.12B45,2013-06-27 04:05:00,
2013-06-27 00:10:00,70.2,67.4,29.58,North,0,0.0,0.0,91,0.00,,,0.00,0,WeatherCatV1.12B45,2013-06-27 04:10:00,
2013-06-27 00:15:00,70.2,67.4,29.58,North,0,0.0,0.0,91,0.00,,,0.00,0,WeatherCatV1.12B45,2013-06-27 04:15:00,
2013-06-27 00:20:00,70.2,67.4,29.58,North,0,0.0,0.0,91,0.00,,,0.00,0,WeatherCatV1.12B45,2013-06-27 04:20:00,
2013-06-27 00:25:00,70.2,67.4,29.58,North,0,0.0,0.0,91,0.00,,,0.00,0,WeatherCatV1.12B45,2013-06-27 04:25:00,
2013-06-27 00:30:00,70.1,67.7,29.58,North,0,0.0,0.0,92,0.00,,,0.00,0,WeatherCatV1.12B45,2013-06-27 04:30:00,
2013-06-27 00:35:00,70.1,67.7,29.58,North,0,0.0,0.0,92,0.00,,,0.00,0,WeatherCatV1.12B45,2013-06-27 04:35:00,
2013-06-27 00:40:00,70.1,67.7,29.58,North,0,0.0,0.0,92,0.00,,,0.00,0,WeatherCatV1.12B45,2013-06-27 04:40:00,
2013-06-27 00:45:00,70.1,67.7,29.58,North,0,0.0,0.0,92,0.00,,,0.00,0,WeatherCatV1.12B45,2013-06-27 04:45:00,
2013-06-27 00:50:00,70.1,67.7,29.58,North,0,0.0,0.0,92,0.00,,,0.00,0,WeatherCatV1.12B45,2013-06-27 04:50:00,
2013-06-27 00:55:00,70.1,67.7,29.58,North,0,0.0,0.0,92,0.00,,,0.00,0,WeatherCatV1.12B45,2013-06-27 04:55:00,
2013-06-27 01:00:00,70.1,67.7,29.58,North,0,0.0,0.0,92,0.00,,,0.00,0,WeatherCatV1.12B45,2013-06-27 05:00:00,
2013-06-27 01:05:00,69.7,67.0,29.58,North,0,0.0,1.0,91,0.00,,,0.00,0,WeatherCatV1.12B45,2013-06-27 05:05:00,
2013-06-27 01:10:00,69.7,67.0,29.58,North,0,0.0,1.0,91,0.00,,,0.00,0,WeatherCatV1.12B45,2013-06-27 05:10:00,
2013-06-27 01:15:00,69.7,67.0,29.58,North,0,0.0,1.0,91,0.00,,,0.00,0,WeatherCatV1.12B45,2013-06-27 05:15:00,
2013-06-27 01:20:00,69.7,67.0,29.58,North,0,0.0,1.0,91,0.00,,,0.00,0,WeatherCatV1.12B45,2013-06-27 05:20:00,
2013-06-27 01:25:00,69.7,67.0,29.58,North,0,0.0,1.0,91,0.00,,,0.00,0,WeatherCatV1.12B45,2013-06-27 05:25:00,
2013-06-27 01:30:00,69.7,67.0,29.58,North,0,0.0,1.0,91,0.00,,,0.00,0,WeatherCatV1.12B45,2013-06-27 05:30:00,
2013-06-27 01:35:00,69.3,66.9,29.58,South,180,0.0,3.0,92,0.00,,,0.00,0,WeatherCatV1.12B45,2013-06-27 05:35:00,
2013-06-27 01:40:00,69.3,66.9,29.58,South,180,0.0,3.0,92,0.00,,,0.00,0,WeatherCatV1.12B45,2013-06-27 05:40:00,
2013-06-27 01:45:00,69.3,66.9,29.58,South,180,0.0,3.0,92,0.00,,,0.00,0,WeatherCatV1.12B45,2013-06-27 05:45:00,
2013-06-27 01:50:00,69.3,66.9,29.58,South,180,0.0,3.0,92,0.00,,,0.00,0,WeatherCatV1.12B45,2013-06-27 05:50:00,
2013-06-27 01:55:00,69.3,66.9,29.58,South,180,0.0,3.0,92,0.00,,,0.00,0,WeatherCatV1.12B45,2013-06-27 05:55:00,
2013-06-27 02:00:00,69.3,66.9,29.58,South,180,0.0,3.0,92,0.00,,,0.00,0,WeatherCatV1.12B45,2013-06-27 06:00:00,
2013-06-27 02:05:00,68.6,65.9,29.57,East,90,0.0,3.0,91,0.00,,,0.00,0,WeatherCatV1.12B45,2013-06-27 06:05:00,
2013-06-27 02:10:00,68.6,65.9,29.57,East,90,0.0,3.0,91,0.00,,,0.00,0,WeatherCatV1.12B45,2013-06-27 06:10:00,
2013-06-27 02:15:00,68.6,65.9,29.57,East,90,0.0,3.0,91,0.00,,,0.00,0,WeatherCatV1.12B45,2013-06-27 06:15:00,
2013-06-27 02:20:00,68.6,65.9,29.57,East,90,0.0,3.0,91,0.00,,,0.00,0,WeatherCatV1.12B45,2013-06-27 06:20:00,
2013-06-27 02:25:00,68.6,65.9,29.57,East,90,0.0,3.0,91,0.00,,,0.00,0,WeatherCatV1.12B45,2013-06-27 06:25:00,
2013-06-27 02:30:00,68.6,65.9,29.57,East,90,0.0,3.0,91,0.00,,,0.00,0,WeatherCatV1.12B45,2013-06-27 06:30:00,
2013-06-27 02:35:00,67.1,64.4,29.58,NNW,338,1.0,3.0,91,0.00,,,0.00,0,WeatherCatV1.12B45,2013-06-27 06:35:00,
2013-06-27 02:40:00,67.1,64.4,29.58,NNW,338,1.0,3.0,91,0.00,,,0.00,0,WeatherCatV1.12B45,2013-06-27 06:40:00,
2013-06-27 02:45:00,67.1,64.4,29.58,NNW,338,1.0,3.0,91,0.00,,,0.00,0,WeatherCatV1.12B45,2013-06-27 06:45:00,
2013-06-27 02:50:00,67.1,64.4,29.58,NNW,338,1.0,3.0,91,0.00,,,0.00,0,WeatherCatV1.12B45,2013-06-27 06:50:00,
2013-06-27 02:55:00,67.1,64.4,29.58,NNW,338,1.0,3.0,91,0.00,,,0.00,0,WeatherCatV1.12B45,2013-06-27 06:55:00,
2013-06-27 03:00:00,67.1,64.4,29.58,NNW,338,1.0,3.0,91,0.00,,,0.00,0,WeatherCatV1.12B45,2013-06-27 07:00:00,
2013-06-27 03:05:00,66.2,63.8,29.57,North,0,0.0,3.0,92,0.00,,,0.00,0,WeatherCatV1.12B45,2013-06-27 07:05:00,
2013-06-27 03:10:00,66.2,63.8,29.57,North,0,0.0,3.0,92,0.00,,,0.00,0,WeatherCatV1.12B45,2013-06-27 07:10:00,
2013-06-27 03:15:00,66.2,63.8,29.57,North,0,0.0,3.0,92,0.00,,,0.00,0,WeatherCatV1.12B45,2013-06-27 07:15:00,
2013-06-27 03:20:00,66.2,63.8,29.57,North,0,0.0,3.0,92,0.00,,,0.00,0,WeatherCatV1.12B45,2013-06-27 07:20:00,
2013-06-27 03:25:00,66.2,63.8,29.57,North,0,0.0,3.0,92,0.00,,,0.00,0,WeatherCatV1.12B45,2013-06-27 07:25:00,
2013-06-27 03:30:00,66.2,63.8,29.57,North,0,0.0,3.0,92,0.00,,,0.00,0,WeatherCatV1.12B45,2013-06-27 07:30:00,
2013-06-27 03:35:00,65.8,63.7,29.56,North,0,0.0,3.0,93,0.00,,,0.00,0,WeatherCatV1.12B45,2013-06-27 07:35:00,
2013-06-27 03:40:00,65.8,63.7,29.56,North,0,0.0,3.0,93,0.00,,,0.00,0,WeatherCatV1.12B45,2013-06-27 07:40:00,
2013-06-27 03:45:00,65.8,63.7,29.56,North,0,0.0,3.0,93,0.00,,,0.00,0,WeatherCatV1.12B45,2013-06-27 07:45:00,
2013-06-27 03:50:00,65.8,63.7,29.56,North,0,0.0,3.0,93,0.00,,,0.00,0,WeatherCatV1.12B45,2013-06-27 07:50:00,
2013-06-27 03:55:00,65.8,63.7,29.56,North,0,0.0,3.0,93,0.00,,,0.00,0,WeatherCatV1.12B45,2013-06-27 07:55:00,
2013-06-27 04:00:00,65.8,63.7,29.56,North,0,0.0,3.0,93,0.00,,,0.00,0,WeatherCatV1.12B45,2013-06-27 08:00:00,
2013-06-27 04:05:00,65.2,63.1,29.56,North,0,1.0,3.0,93,0.00,,,0.00,0,WeatherCatV1.12B45,2013-06-27 08:05:00,
2013-06-27 04:10:00,65.2,63.1,29.56,North,0,1.0,3.0,93,0.00,,,0.00,0,WeatherCatV1.12B45,2013-06-27 08:10:00,
2013-06-27 04:15:00,65.2,63.1,29.56,North,0,1.0,3.0,93,0.00,,,0.00,0,WeatherCatV1.12B45,2013-06-27 08:15:00,
2013-06-27 04:20:00,65.2,63.1,29.56,North,0,1.0,3.0,93,0.00,,,0.00,0,WeatherCatV1.12B45,2013-06-27 08:20:00,
2013-06-27 04:25:00,65.2,63.1,29.56,North,0,1.0,3.0,93,0.00,,,0.00,0,WeatherCatV1.12B45,2013-06-27 08:25:00,
2013-06-27 04:30:00,65.2,63.1,29.56,North,0,1.0,3.0,93,0.00,,,0.00,0,WeatherCatV1.12B45,2013-06-27 08:30:00,
2013-06-27 04:35:00,64.7,62.6,29.56,NE,45,1.0,4.0,93,0.00,,,0.00,0,WeatherCatV1.12B45,2013-06-27 08:35:00,
2013-06-27 04:40:00,64.7,62.6,29.56,NE,45,1.0,4.0,93,0.00,,,0.00,0,WeatherCatV1.12B45,2013-06-27 08:40:00,
2013-06-27 04:45:00,64.7,62.6,29.56,NE,45,1.0,4.0,93,0.00,,,0.00,0,WeatherCatV1.12B45,2013-06-27 08:45:00,
2013-06-27 04:50:00,64.7,62.6,29.56,NE,45,1.0,4.0,93,0.00,,,0.00,0,WeatherCatV1.12B45,2013-06-27 08:50:00,
2013-06-27 04:55:00,64.7,62.6,29.56,NE,45,1.0,4.0,93,0.00,,,0.00,0,WeatherCatV1.12B45,2013-06-27 08:55:00,
2013-06-27 05:00:00,63.3,61.2,29.56,NNW,338,1.0,6.0,93,0.00,,,0.00,0,WeatherCatV1.12B45,2013-06-27 09:00:00,
2013-06-27 05:05:00,63.3,61.2,29.56,NNW,338,1.0,6.0,93,0.00,,,0.00,0,WeatherCatV1.12B45,2013-06-27 09:05:00,
2013-06-27 05:10:00,63.3,61.2,29.56,NNW,338,1.0,6.0,93,0.00,,,0.00,0,WeatherCatV1.12B45,2013-06-27 09:10:00,
2013-06-27 05:15:00,63.3,61.2,29.56,NNW,338,1.0,6.0,93,0.00,,,0.00,0,WeatherCatV1.12B45,2013-06-27 09:15:00,
2013-06-27 05:20:00,63.3,61.2,29.56,NNW,338,1.0,6.0,93,0.00,,,0.00,0,WeatherCatV1.12B45,2013-06-27 09:20:00,
2013-06-27 05:25:00,63.3,61.2,29.56,NNW,338,1.0,6.0,93,0.00,,,0.00,0,WeatherCatV1.12B45,2013-06-27 09:25:00,
2013-06-27 05:30:00,63.1,61.0,29.55,NNE,22,1.0,4.0,93,0.00,,,0.00,0,WeatherCatV1.12B45,2013-06-27 09:30:00,
2013-06-27 05:35:00,63.1,61.0,29.55,NNE,22,1.0,4.0,93,0.00,,,0.00,0,WeatherCatV1.12B45,2013-06-27 09:35:00,
2013-06-27 05:40:00,63.1,61.0,29.55,NNE,22,1.0,4.0,93,0.00,,,0.00,0,WeatherCatV1.12B45,2013-06-27 09:40:00,
2013-06-27 05:45:00,63.1,61.0,29.55,NNE,22,1.0,4.0,93,0.00,,,0.00,0,WeatherCatV1.12B45,2013-06-27 09:45:00,
2013-06-27 05:50:00,63.1,61.0,29.55,NNE,22,1.0,4.0,93,0.00,,,0.00,0,WeatherCatV1.12B45,2013-06-27 09:50:00,
2013-06-27 05:55:00,63.1,61.0,29.55,NNE,22,1.0,4.0,93,0.00,,,0.00,0,WeatherCatV1.12B45,2013-06-27 09:55:00,
2013-06-27 06:00:00,62.5,60.4,29.58,North,0,1.0,5.0,93,0.00,,,0.00,0,WeatherCatV1.12B45,2013-06-27 10:00:00,
2013-06-27 06:05:00,62.5,60.4,29.58,North,0,1.0,5.0,93,0.00,,,0.00,0,WeatherCatV1.12B45,2013-06-27 10:05:00,
2013-06-27 06:10:00,62.5,60.4,29.58,North,0,1.0,5.0,93,0.00,,,0.00,0,WeatherCatV1.12B45,2013-06-27 10:10:00,
2013-06-27 06:15:00,62.5,60.4,29.58,North,0,1.0,5.0,93,0.00,,,0.00,0,WeatherCatV1.12B45,2013-06-27 10:15:00,
2013-06-27 06:20:00,62.5,60.4,29.58,North,0,1.0,5.0,93,0.00,,,0.00,0,WeatherCatV1.12B45,2013-06-27 10:20:00,
2013-06-27 06:25:00,62.5,60.4,29.58,North,0,1.0,5.0,93,0.00,,,0.00,0,WeatherCatV1.12B45,2013-06-27 10:25:00,
2013-06-27 06:30:00,62.3,60.5,29.59,North,0,0.0,3.0,94,0.00,,,0.00,2,WeatherCatV1.12B45,2013-06-27 10:30:00,
2013-06-27 06:35:00,62.3,60.5,29.59,North,0,0.0,3.0,94,0.00,,,0.00,2,WeatherCatV1.12B45,2013-06-27 10:35:00,
2013-06-27 06:40:00,62.3,60.5,29.59,North,0,0.0,3.0,94,0.00,,,0.00,2,WeatherCatV1.12B45,2013-06-27 10:40:00,
2013-06-27 06:45:00,62.3,60.5,29.59,North,0,0.0,3.0,94,0.00,,,0.00,2,WeatherCatV1.12B45,2013-06-27 10:45:00,
2013-06-27 06:50:00,62.3,60.5,29.59,North,0,0.0,3.0,94,0.00,,,0.00,2,WeatherCatV1.12B45,2013-06-27 10:50:00,
2013-06-27 06:55:00,62.3,60.5,29.59,North,0,0.0,3.0,94,0.00,,,0.00,2,WeatherCatV1.12B45,2013-06-27 10:55:00,
2013-06-27 07:00:00,62.2,60.4,29.60,North,0,1.0,4.0,94,0.00,,,0.00,13,WeatherCatV1.12B45,2013-06-27 11:00:00,
2013-06-27 07:05:00,62.2,60.4,29.60,North,0,1.0,4.0,94,0.00,,,0.00,13,WeatherCatV1.12B45,2013-06-27 11:05:00,
2013-06-27 07:10:00,62.2,60.4,29.60,North,0,1.0,4.0,94,0.00,,,0.00,13,WeatherCatV1.12B45,2013-06-27 11:10:00,
2013-06-27 07:15:00,62.2,60.4,29.60,North,0,1.0,4.0,94,0.00,,,0.00,13,WeatherCatV1.12B45,2013-06-27 11:15:00,
2013-06-27 07:20:00,62.2,60.4,29.60,North,0,1.0,4.0,94,0.00,,,0.00,13,WeatherCatV1.12B45,2013-06-27 11:20:00,
2013-06-27 07:25:00,62.2,60.4,29.60,North,0,1.0,4.0,94,0.00,,,0.00,13,WeatherCatV1.12B45,2013-06-27 11:25:00,
2013-06-27 07:38:00,62.1,60.3,29.60,NNW,327,1.0,0.0,94,0.00,,,0.00,63,WeatherCatV1.12B45,2013-06-27 11:38:00,
2013-06-27 07:43:00,62.3,60.8,29.60,NNW,327,0.0,0.0,95,0.00,,,0.00,32,WeatherCatV1.12B45,2013-06-27 11:43:00,
2013-06-27 07:48:00,62.3,60.8,29.60,NNW,327,0.0,0.0,95,0.00,,,0.00,42,WeatherCatV1.12B45,2013-06-27 11:48:00,
2013-06-27 07:53:00,62.4,60.9,29.60,NNW,327,1.0,1.0,95,0.00,,,0.00,54,WeatherCatV1.12B45,2013-06-27 11:53:00,
2013-06-27 07:58:00,62.4,60.6,29.60,NNW,327,0.0,0.0,94,0.00,,,0.00,44,WeatherCatV1.12B45,2013-06-27 11:58:00,
2013-06-27 08:03:00,62.5,61.0,29.60,NNW,327,0.0,1.0,95,0.00,,,0.00,90,WeatherCatV1.12B45,2013-06-27 12:03:00,
2013-06-27 08:08:00,62.6,61.1,29.60,NNW,327,0.0,1.0,95,0.00,,,0.00,97,WeatherCatV1.12B45,2013-06-27 12:08:00,
2013-06-27 08:13:00,62.8,61.3,29.59,NNW,327,0.0,1.0,95,0.00,,,0.00,114,WeatherCatV1.12B45,2013-06-27 12:13:00,
2013-06-27 08:19:00,62.9,61.4,29.60,WNW,283,0.0,4.0,95,0.00,,,0.00,104,WeatherCatV1.12B45,2013-06-27 12:19:00,
2013-06-27 08:24:00,63.1,61.6,29.60,SW,217,1.0,2.0,95,0.00,,,0.00,111,WeatherCatV1.12B45,2013-06-27 12:24:00,
2013-06-27 08:29:00,63.3,61.8,29.59,SW,218,0.0,0.0,95,0.00,,,0.00,165,WeatherCatV1.12B45,2013-06-27 12:29:00,
2013-06-27 08:34:00,63.5,62.0,29.59,SSW,198,0.0,4.0,95,0.00,,,0.00,207,WeatherCatV1.12B45,2013-06-27 12:34:00,
2013-06-27 08:39:00,64.3,62.8,29.59,SSW,197,0.0,0.0,95,0.00,,,0.00,149,WeatherCatV1.12B45,2013-06-27 12:39:00,
2013-06-27 08:44:00,64.5,62.7,29.60,SSW,197,0.0,2.0,94,0.00,,,0.00,104,WeatherCatV1.12B45,2013-06-27 12:44:00,
2013-06-27 08:49:00,64.5,62.7,29.60,SSW,196,0.0,2.0,94,0.00,,,0.00,107,WeatherCatV1.12B45,2013-06-27 12:49:00,
2013-06-27 08:54:00,64.6,62.8,29.59,West,281,1.0,1.0,94,0.00,,,0.00,116,WeatherCatV1.12B45,2013-06-27 12:54:00,
2013-06-27 08:59:00,64.7,62.9,29.59,NW,312,0.0,1.0,94,0.00,,,0.00,132,WeatherCatV1.12B45,2013-06-27 12:59:00,
2013-06-27 09:04:00,64.8,63.3,29.59,NW,312,1.0,1.0,95,0.00,,,0.00,125,WeatherCatV1.12B45,2013-06-27 13:04:00,
2013-06-27 09:09:00,64.9,63.4,29.59,NW,307,0.0,1.0,95,0.00,,,0.00,128,WeatherCatV1.12B45,2013-06-27 13:09:00,
2013-06-27 09:14:00,65.0,63.5,29.58,SW,234,0.0,3.0,95,0.00,,,0.00,149,WeatherCatV1.12B45,2013-06-27 13:14:00,
2013-06-27 09:19:00,65.0,63.2,29.58,SW,234,0.0,0.0,94,0.00,,,0.00,151,WeatherCatV1.12B45,2013-06-27 13:19:00,
2013-06-27 09:24:00,65.3,63.5,29.58,North,350,0.0,1.0,94,0.00,,,0.00,151,WeatherCatV1.12B45,2013-06-27 13:24:00,
2013-06-27 09:29:00,65.4,63.9,29.58,WSW,250,1.0,2.0,95,0.00,,,0.00,156,WeatherCatV1.12B45,2013-06-27 13:29:00,
2013-06-27 09:34:00,65.6,64.1,29.58,SE,135,1.0,2.0,95,0.00,,,0.00,181,WeatherCatV1.12B45,2013-06-27 13:34:00,
2013-06-27 09:39:00,65.8,64.0,29.58,SSW,192,0.0,4.0,94,0.00,,,0.00,207,WeatherCatV1.12B45,2013-06-27 13:39:00,
2013-06-27 09:44:00,65.9,64.1,29.58,South,184,4.0,4.0,94,0.00,,,0.00,162,WeatherCatV1.12B45,2013-06-27 13:44:00,
2013-06-27 09:49:00,66.0,64.2,29.58,South,169,0.0,2.0,94,0.00,,,0.00,155,WeatherCatV1.12B45,2013-06-27 13:49:00,
2013-06-27 09:54:00,66.1,64.3,29.58,SSW,192,1.0,2.0,94,0.00,,,0.00,179,WeatherCatV1.12B45,2013-06-27 13:54:00,
2013-06-27 09:59:00,66.3,64.5,29.58,SE,146,1.0,1.0,94,0.00,,,0.00,178,WeatherCatV1.12B45,2013-06-27 13:59:00,
2013-06-27 10:04:00,66.4,64.6,29.58,SSE,153,1.0,1.0,94,0.00,,,0.00,155,WeatherCatV1.12B45,2013-06-27 14:04:00,
2013-06-27 10:09:00,66.5,64.7,29.58,NNE,17,0.0,1.0,94,0.00,,,0.00,169,WeatherCatV1.12B45,2013-06-27 14:09:00,
2013-06-27 10:14:00,66.7,64.9,29.58,SSE,157,0.0,2.0,94,0.00,,,0.00,169,WeatherCatV1.12B45,2013-06-27 14:14:00,
2013-06-27 10:19:00,66.8,64.7,29.58,SSW,203,0.0,2.0,93,0.00,,,0.00,146,WeatherCatV1.12B45,2013-06-27 14:19:00,
2013-06-27 10:24:00,66.8,64.7,29.58,South,190,1.0,4.0,93,0.00,,,0.00,169,WeatherCatV1.12B45,2013-06-27 14:24:00,
2013-06-27 10:29:00,66.9,64.5,29.58,NNE,19,2.0,2.0,92,0.00,,,0.00,174,WeatherCatV1.12B45,2013-06-27 14:29:00,
2013-06-27 10:34:00,67.0,64.6,29.58,NNW,338,1.0,3.0,92,0.00,,,0.00,183,WeatherCatV1.12B45,2013-06-27 14:34:00,
2013-06-27 10:39:00,67.0,64.6,29.58,SSW,199,1.0,2.0,92,0.00,,,0.00,179,WeatherCatV1.12B45,2013-06-27 14:39:00,
2013-06-27 10:44:00,67.0,64.6,29.58,SSW,199,3.0,3.0,92,0.00,,,0.00,171,WeatherCatV1.12B45,2013-06-27 14:44:00,
2013-06-27 10:49:00,67.1,64.4,29.58,SSW,199,0.0,4.0,91,0.00,,,0.00,137,WeatherCatV1.12B45,2013-06-27 14:49:00,
2013-06-27 10:54:00,67.2,64.5,29.58,SSW,199,0.0,2.0,91,0.00,,,0.00,130,WeatherCatV1.12B45,2013-06-27 14:54:00,
2013-06-27 10:59:00,67.3,64.3,29.58,SSW,199,0.0,1.0,90,0.00,,,0.00,167,WeatherCatV1.12B45,2013-06-27 14:59:00,
2013-06-27 11:04:00,67.4,64.4,29.58,WSW,239,0.0,2.0,90,0.00,,,0.00,125,WeatherCatV1.12B45,2013-06-27 15:04:00,
2013-06-27 11:09:00,67.5,64.5,29.58,SSW,192,0.0,3.0,90,0.00,,,0.00,171,WeatherCatV1.12B45,2013-06-27 15:09:00,
2013-06-27 11:14:00,67.5,64.1,29.58,North,5,0.0,4.0,89,0.00,,,0.00,179,WeatherCatV1.12B45,2013-06-27 15:14:00,
2013-06-27 11:19:00,67.6,64.2,29.58,North,355,0.0,3.0,89,0.00,,,0.00,229,WeatherCatV1.12B45,2013-06-27 15:19:00,
2013-06-27 11:24:00,67.7,64.3,29.58,North,355,0.0,0.0,89,0.00,,,0.00,241,WeatherCatV1.12B45,2013-06-27 15:24:00,
2013-06-27 11:29:00,67.9,64.5,29.58,North,355,0.0,2.0,89,0.00,,,0.00,128,WeatherCatV1.12B45,2013-06-27 15:29:00,
2013-06-27 11:34:00,68.0,64.6,29.58,North,355,1.0,2.0,89,0.00,,,0.00,229,WeatherCatV1.12B45,2013-06-27 15:34:00,
2013-06-27 11:39:00,68.1,64.7,29.57,North,355,0.0,1.0,89,0.00,,,0.00,237,WeatherCatV1.12B45,2013-06-27 15:39:00,
2013-06-27 11:44:00,68.2,64.8,29.57,NW,307,0.0,2.0,89,0.00,,,0.00,253,WeatherCatV1.12B45,2013-06-27 15:44:00,
2013-06-27 11:49:00,68.3,64.6,29.57,NNW,347,1.0,2.0,88,0.00,,,0.00,202,WeatherCatV1.12B45,2013-06-27 15:49:00,
2013-06-27 11:54:00,68.4,64.7,29.57,NNW,346,3.0,3.0,88,0.00,,,0.00,267,WeatherCatV1.12B45,2013-06-27 15:54:00,
2013-06-27 11:59:00,68.6,64.9,29.57,NNW,346,0.0,3.0,88,0.00,,,0.00,352,WeatherCatV1.12B45,2013-06-27 15:59:00,
2013-06-27 12:04:00,68.9,65.5,29.56,NNW,334,4.0,5.0,89,0.00,,,0.00,392,WeatherCatV1.12B45,2013-06-27 16:04:00,
2013-06-27 12:09:00,69.9,66.5,29.57,NE,47,2.0,3.0,89,0.00,,,0.00,265,WeatherCatV1.12B45,2013-06-27 16:09:00,
2013-06-27 12:14:00,69.7,65.0,29.57,SSE,156,1.0,2.0,85,0.00,,,0.00,128,WeatherCatV1.12B45,2013-06-27 16:14:00,
2013-06-27 12:19:00,69.2,64.8,29.57,SSE,153,1.0,2.0,86,0.00,,,0.00,278,WeatherCatV1.12B45,2013-06-27 16:19:00,
2013-06-27 12:24:00,69.6,65.2,29.56,South,184,2.0,4.0,86,0.00,,,0.00,283,WeatherCatV1.12B45,2013-06-27 16:24:00,
2013-06-27 12:29:00,70.3,65.9,29.56,NW,306,1.0,2.0,86,0.00,,,0.00,230,WeatherCatV1.12B45,2013-06-27 16:29:00,
2013-06-27 12:34:00,70.3,65.6,29.57,South,186,1.0,4.0,85,0.00,,,0.00,223,WeatherCatV1.12B45,2013-06-27 16:34:00,
2013-06-27 12:39:00,70.1,65.4,29.57,SSW,194,0.0,3.0,85,0.00,,,0.00,313,WeatherCatV1.12B45,2013-06-27 16:39:00,
2013-06-27 12:44:00,69.9,64.8,29.56,South,182,4.0,7.0,84,0.00,,,0.00,399,WeatherCatV1.12B45,2013-06-27 16:44:00,
2013-06-27 12:49:00,70.4,65.7,29.56,NE,53,0.0,3.0,85,0.00,,,0.00,332,WeatherCatV1.12B45,2013-06-27 16:49:00,
2013-06-27 12:54:00,70.7,65.6,29.56,North,9,3.0,3.0,84,0.00,,,0.00,325,WeatherCatV1.12B45,2013-06-27 16:54:00,
2013-06-27 12:59:00,70.8,65.7,29.56,NNE,25,0.0,2.0,84,0.00,,,0.00,246,WeatherCatV1.12B45,2013-06-27 16:59:00,
2013-06-27 13:04:00,71.1,66.0,29.56,SSW,192,3.0,5.0,84,0.00,,,0.00,174,WeatherCatV1.12B45,2013-06-27 17:04:00,
2013-06-27 13:09:00,70.9,65.8,29.56,NNW,328,0.0,0.0,84,0.00,,,0.00,258,WeatherCatV1.12B45,2013-06-27 17:09:00,
2013-06-27 13:14:00,70.9,65.8,29.55,North,355,1.0,3.0,84,0.00,,,0.00,262,WeatherCatV1.12B45,2013-06-27 17:14:00,
2013-06-27 13:19:00,71.1,66.0,29.55,North,355,4.0,5.0,84,0.00,,,0.00,188,WeatherCatV1.12B45,2013-06-27 17:19:00,
2013-06-27 13:24:00,71.1,66.4,29.55,North,355,0.0,2.0,85,0.00,,,0.00,218,WeatherCatV1.12B45,2013-06-27 17:24:00,
2013-06-27 13:29:00,71.1,65.7,29.55,SW,226,1.0,3.0,83,0.00,,,0.00,186,WeatherCatV1.12B45,2013-06-27 17:29:00,
2013-06-27 13:34:00,71.5,66.1,29.55,SSW,213,0.0,1.0,83,0.00,,,0.00,172,WeatherCatV1.12B45,2013-06-27 17:34:00,
2013-06-27 13:39:00,71.4,66.0,29.55,SSE,158,0.0,3.0,83,0.00,,,0.00,199,WeatherCatV1.12B45,2013-06-27 17:39:00,
2013-06-27 13:44:00,71.5,66.1,29.55,SSE,154,0.0,1.0,83,0.00,,,0.00,178,WeatherCatV1.12B45,2013-06-27 17:44:00,
2013-06-27 13:49:00,71.7,66.2,29.55,East,84,0.0,3.0,83,0.00,,,0.00,302,WeatherCatV1.12B45,2013-06-27 17:49:00,
2013-06-27 13:54:00,71.9,66.4,29.55,South,186,0.0,2.0,83,0.00,,,0.00,406,WeatherCatV1.12B45,2013-06-27 17:54:00,
2013-06-27 13:59:00,72.1,66.3,29.54,SSW,196,0.0,1.0,82,0.00,,,0.00,309,WeatherCatV1.12B45,2013-06-27 17:59:00,
2013-06-27 14:04:00,72.3,66.5,29.55,NNE,17,0.0,3.0,82,0.00,,,0.00,197,WeatherCatV1.12B45,2013-06-27 18:04:00,
2013-06-27 14:09:00,72.4,66.2,29.55,SSE,167,1.0,2.0,81,0.00,,,0.00,250,WeatherCatV1.12B45,2013-06-27 18:09:00,
2013-06-27 14:14:00,72.4,66.2,29.54,NW,321,4.0,4.0,81,0.00,,,0.00,221,WeatherCatV1.12B45,2013-06-27 18:14:00,
2013-06-27 14:19:00,72.5,66.3,29.54,North,355,4.0,5.0,81,0.00,,,0.00,223,WeatherCatV1.12B45,2013-06-27 18:19:00,
2013-06-27 14:24:00,72.5,66.3,29.54,NNW,341,3.0,4.0,81,0.00,,,0.00,199,WeatherCatV1.12B45,2013-06-27 18:24:00,
2013-06-27 14:29:00,72.5,66.3,29.54,NNE,18,0.0,2.0,81,0.00,,,0.00,167,WeatherCatV1.12B45,2013-06-27 18:29:00,
2013-06-27 14:34:00,72.4,66.2,29.54,North,10,0.0,3.0,81,0.00,,,0.00,132,WeatherCatV1.12B45,2013-06-27 18:34:00,
2013-06-27 14:39:00,72.3,66.1,29.54,North,10,0.0,2.0,81,0.00,,,0.00,125,WeatherCatV1.12B45,2013-06-27 18:39:00,
2013-06-27 14:44:00,72.2,66.0,29.54,North,355,0.0,3.0,81,0.00,,,0.00,102,WeatherCatV1.12B45,2013-06-27 18:44:00,
2013-06-27 14:49:00,72.1,65.9,29.55,North,355,0.0,1.0,81,0.00,,,0.00,58,WeatherCatV1.12B45,2013-06-27 18:49:00,
2013-06-27 14:54:00,71.9,65.7,29.54,North,355,0.0,1.0,81,0.00,,,0.00,70,WeatherCatV1.12B45,2013-06-27 18:54:00,
2013-06-27 14:59:00,71.8,66.0,29.54,North,355,0.0,1.0,82,0.16,,,0.02,69,WeatherCatV1.12B45,2013-06-27 18:59:00,
2013-06-27 15:04:00,71.7,66.2,29.54,North,355,0.0,0.0,83,0.26,,,0.04,83,WeatherCatV1.12B45,2013-06-27 19:04:00,
2013-06-27 15:09:00,71.5,66.4,29.54,North,355,0.0,1.0,84,0.30,,,0.08,84,WeatherCatV1.12B45,2013-06-27 19:09:00,
2013-06-27 15:14:00,71.3,66.2,29.55,North,355,0.0,2.0,84,0.10,,,0.08,51,WeatherCatV1.12B45,2013-06-27 19:14:00,
2013-06-27 15:19:00,71.0,66.3,29.55,North,355,0.0,0.0,85,0.05,,,0.08,53,WeatherCatV1.12B45,2013-06-27 19:19:00,
2013-06-27 15:24:00,70.7,66.0,29.55,SSW,198,1.0,5.0,85,0.04,,,0.08,46,WeatherCatV1.12B45,2013-06-27 19:24:00,
2013-06-27 15:29:00,70.4,65.7,29.55,South,190,0.0,1.0,85,0.00,,,0.08,62,WeatherCatV1.12B45,2013-06-27 19:29:00,
2013-06-27 15:34:00,70.1,65.7,29.55,South,190,0.0,2.0,86,0.00,,,0.08,60,WeatherCatV1.12B45,2013-06-27 19:34:00,
2013-06-27 15:39:00,69.9,65.8,29.55,SSW,195,0.0,1.0,87,0.00,,,0.08,47,WeatherCatV1.12B45,2013-06-27 19:39:00,
2013-06-27 15:44:00,69.6,65.6,29.54,SE,130,0.0,2.0,87,0.00,,,0.08,46,WeatherCatV1.12B45,2013-06-27 19:44:00,
2013-06-27 15:49:00,69.3,65.3,29.54,ESE,103,0.0,1.0,87,0.00,,,0.08,46,WeatherCatV1.12B45,2013-06-27 19:49:00,
2013-06-27 15:54:00,69.1,65.4,29.54,SSE,159,1.0,2.0,88,0.00,,,0.08,54,WeatherCatV1.12B45,2013-06-27 19:54:00,
2013-06-27 15:59:00,68.9,65.2,29.54,South,181,0.0,0.0,88,0.00,,,0.09,54,WeatherCatV1.12B45,2013-06-27 19:59:00,
2013-06-27 16:04:00,68.8,65.1,29.54,South,191,0.0,2.0,88,0.00,,,0.09,47,WeatherCatV1.12B45,2013-06-27 20:04:00,
2013-06-27 16:09:00,68.5,64.8,29.54,ESE,116,0.0,2.0,88,0.00,,,0.09,70,WeatherCatV1.12B45,2013-06-27 20:09:00,
2013-06-27 16:14:00,68.3,64.9,29.54,SSE,154,0.0,1.0,89,0.04,,,0.10,54,WeatherCatV1.12B45,2013-06-27 20:14:00,
2013-06-27 16:19:00,68.0,64.6,29.54,SSW,202,0.0,1.0,89,0.04,,,0.10,54,WeatherCatV1.12B45,2013-06-27 20:19:00,
2013-06-27 16:24:00,67.9,64.5,29.54,WSW,254,0.0,0.0,89,0.04,,,0.10,47,WeatherCatV1.12B45,2013-06-27 20:24:00,
2013-06-27 16:28:00,67.8,64.4,29.53,WSW,254,0.0,1.0,89,0.00,,,0.10,42,WeatherCatV1.12B45,2013-06-27 20:28:00,
2013-06-27 16:33:00,67.7,64.7,29.53,WSW,242,0.0,2.0,90,0.00,,,0.10,49,WeatherCatV1.12B45,2013-06-27 20:33:00,
2013-06-27 16:38:00,67.5,64.5,29.53,North,5,0.0,0.0,90,0.00,,,0.10,44,WeatherCatV1.12B45,2013-06-27 20:38:00,
2013-06-27 16:43:00,67.3,64.3,29.53,South,176,0.0,0.0,90,0.00,,,0.10,37,WeatherCatV1.12B45,2013-06-27 20:43:00,
2013-06-27 16:48:00,67.2,64.2,29.53,East,95,0.0,2.0,90,0.00,,,0.10,42,WeatherCatV1.12B45,2013-06-27 20:48:00,
2013-06-27 16:53:00,67.0,64.0,29.53,NNE,15,0.0,1.0,90,0.00,,,0.10,33,WeatherCatV1.12B45,2013-06-27 20:53:00,
2013-06-27 16:58:00,67.0,64.0,29.53,NNE,15,0.0,0.0,90,0.00,,,0.10,32,WeatherCatV1.12B45,2013-06-27 20:58:00,
2013-06-27 17:03:00,66.9,64.2,29.53,NNE,15,0.0,1.0,91,0.00,,,0.10,21,WeatherCatV1.12B45,2013-06-27 21:03:00,
2013-06-27 17:08:00,66.8,64.1,29.54,NNE,15,0.0,0.0,91,0.00,,,0.10,19,WeatherCatV1.12B45,2013-06-27 21:08:00,
2013-06-27 17:13:00,66.8,64.1,29.53,NNE,15,0.0,0.0,91,0.00,,,0.10,25,WeatherCatV1.12B45,2013-06-27 21:13:00,
2013-06-27 17:18:00,66.7,64.0,29.53,NNE,14,0.0,1.0,91,0.00,,,0.10,25,WeatherCatV1.12B45,2013-06-27 21:18:00,
2013-06-27 17:23:00,66.7,64.0,29.53,NNE,19,0.0,3.0,91,0.00,,,0.10,23,WeatherCatV1.12B45,2013-06-27 21:23:00,
2013-06-27 17:28:00,66.4,63.7,29.53,North,0,2.0,4.0,91,0.00,,,0.10,25,WeatherCatV1.12B45,2013-06-27 21:28:00,
2013-06-27 17:33:00,66.2,63.5,29.53,NNW,337,0.0,0.0,91,0.00,,,0.10,21,WeatherCatV1.12B45,2013-06-27 21:33:00,
2013-06-27 17:38:00,66.2,63.5,29.53,NNW,336,1.0,3.0,91,0.00,,,0.10,14,WeatherCatV1.12B45,2013-06-27 21:38:00,
2013-06-27 17:41:00,66.1,63.7,29.53,NNW,342,2.0,3.0,92,0.00,,,0.10,14,WeatherCatV1.12B45,2013-06-27 21:41:00,
2013-06-27 17:46:00,66.0,63.6,29.53,NNW,342,0.0,0.0,92,0.00,,,0.10,18,WeatherCatV1.12B45,2013-06-27 21:46:00,
2013-06-27 17:51:00,66.0,63.6,29.53,SSW,210,0.0,4.0,92,0.00,,,0.10,21,WeatherCatV1.12B45,2013-06-27 21:51:00,
2013-06-27 17:56:00,66.0,63.6,29.53,SSW,211,0.0,1.0,92,0.00,,,0.10,18,WeatherCatV1.12B45,2013-06-27 21:56:00,
2013-06-27 18:01:00,66.0,63.6,29.53,SSW,212,0.0,1.0,92,0.00,,,0.10,19,WeatherCatV1.12B45,2013-06-27 22:01:00,
2013-06-27 18:06:00,66.0,63.6,29.53,NW,326,0.0,2.0,92,0.00,,,0.10,19,WeatherCatV1.12B45,2013-06-27 22:06:00,
2013-06-27 18:10:00,66.0,63.6,29.53,WNW,295,2.0,2.0,92,0.00,,,0.10,25,WeatherCatV1.12B45,2013-06-27 22:10:00,
2013-06-27 18:15:00,65.9,63.5,29.53,North,355,1.0,4.0,92,0.00,,,0.10,21,WeatherCatV1.12B45,2013-06-27 22:15:00,
2013-06-27 18:20:00,65.7,63.3,29.53,North,350,0.0,0.0,92,0.00,,,0.10,14,WeatherCatV1.12B45,2013-06-27 22:20:00,
2013-06-27 18:25:00,65.7,63.3,29.53,North,350,0.0,1.0,92,0.00,,,0.10,14,WeatherCatV1.12B45,2013-06-27 22:25:00,
2013-06-27 18:30:00,65.7,63.3,29.53,North,350,2.0,3.0,92,0.00,,,0.10,5,WeatherCatV1.12B45,2013-06-27 22:30:00,
2013-06-27 18:35:00,65.6,63.2,29.53,North,349,1.0,1.0,92,0.00,,,0.10,9,WeatherCatV1.12B45,2013-06-27 22:35:00,
2013-06-27 18:40:00,65.5,63.1,29.53,NNW,342,0.0,3.0,92,0.00,,,0.10,9,WeatherCatV1.12B45,2013-06-27 22:40:00,
2013-06-27 18:45:00,65.4,63.3,29.53,NNW,342,0.0,0.0,93,0.00,,,0.10,11,WeatherCatV1.12B45,2013-06-27 22:45:00,
2013-06-27 18:50:00,65.4,63.3,29.53,SSW,209,0.0,3.0,93,0.00,,,0.10,12,WeatherCatV1.12B45,2013-06-27 22:50:00,
2013-06-27 18:55:00,65.4,63.3,29.53,SSW,209,2.0,2.0,93,0.00,,,0.10,7,WeatherCatV1.12B45,2013-06-27 22:55:00,
2013-06-27 19:00:00,65.4,63.3,29.53,SSW,209,0.0,0.0,93,0.00,,,0.10,12,WeatherCatV1.12B45,2013-06-27 23:00:00,
2013-06-27 19:05:00,65.4,63.3,29.52,SSW,207,0.0,2.0,93,0.00,,,0.10,7,WeatherCatV1.12B45,2013-06-27 23:05:00,
2013-06-27 19:10:00,65.4,63.3,29.52,SSW,207,0.0,0.0,93,0.00,,,0.10,7,WeatherCatV1.12B45,2013-06-27 23:10:00,
2013-06-27 19:15:00,65.3,63.2,29.52,South,191,0.0,2.0,93,0.00,,,0.10,5,WeatherCatV1.12B45,2013-06-27 23:15:00,
2013-06-27 19:20:00,65.3,63.2,29.52,South,180,1.0,1.0,93,0.00,,,0.10,0,WeatherCatV1.12B45,2013-06-27 23:20:00,
2013-06-27 19:25:00,65.2,63.1,29.52,SW,236,0.0,2.0,93,0.00,,,0.10,5,WeatherCatV1.12B45,2013-06-27 23:25:00,
2013-06-27 19:30:00,65.2,63.1,29.52,SSW,193,0.0,1.0,93,0.00,,,0.10,5,WeatherCatV1.12B45,2013-06-27 23:30:00,
2013-06-27 19:35:00,65.1,63.0,29.52,SSW,209,0.0,3.0,93,0.00,,,0.10,0,WeatherCatV1.12B45,2013-06-27 23:35:00,
2013-06-27 19:40:00,65.1,63.0,29.52,SSW,196,1.0,1.0,93,0.00,,,0.10,0,WeatherCatV1.12B45,2013-06-27 23:40:00,
2013-06-27 19:45:00,65.0,62.9,29.52,South,180,0.0,1.0,93,0.00,,,0.10,0,WeatherCatV1.12B45,2013-06-27 23:45:00,
2013-06-27 19:50:00,64.9,62.8,29.52,South,191,0.0,1.0,93,0.00,,,0.10,0,WeatherCatV1.12B45,2013-06-27 23:50:00,
2013-06-27 19:55:00,64.8,62.7,29.52,North,351,0.0,2.0,93,0.00,,,0.10,0,WeatherCatV1.12B45,2013-06-27 23:55:00,
2013-06-27 20:00:00,64.8,62.7,29.52,South,186,0.0,0.0,93,0.00,,,0.10,0,WeatherCatV1.12B45,2013-06-28 00:00:00,
2013-06-27 20:05:00,64.8,62.7,29.52,South,175,1.0,1.0,93,0.00,,,0.10,0,WeatherCatV1.12B45,2013-06-28 00:05:00,
2013-06-27 20:10:00,64.7,62.6,29.52,ESE,107,0.0,1.0,93,0.00,,,0.10,0,WeatherCatV1.12B45,2013-06-28 00:10:00,
2013-06-27 20:15:00,64.7,62.6,29.52,ESE,121,0.0,1.0,93,0.00,,,0.10,0,WeatherCatV1.12B45,2013-06-28 00:15:00,
2013-06-27 20:20:00,64.7,62.6,29.52,SSE,157,0.0,0.0,93,0.00,,,0.10,0,WeatherCatV1.12B45,2013-06-28 00:20:00,
2013-06-27 20:25:00,64.7,62.6,29.52,SSE,165,0.0,0.0,93,0.00,,,0.10,0,WeatherCatV1.12B45,2013-06-28 00:25:00,
2013-06-27 20:30:00,64.7,62.9,29.52,East,95,1.0,2.0,94,0.00,,,0.10,0,WeatherCatV1.12B45,2013-06-28 00:30:00,
2013-06-27 20:35:00,64.7,62.9,29.52,SW,231,0.0,0.0,94,0.00,,,0.10,0,WeatherCatV1.12B45,2013-06-28 00:35:00,
2013-06-27 20:40:00,64.7,62.9,29.52,South,178,0.0,2.0,94,0.00,,,0.10,0,WeatherCatV1.12B45,2013-06-28 00:40:00,
2013-06-27 20:46:00,64.6,62.8,29.52,East,88,0.0,2.0,94,0.00,,,0.10,0,WeatherCatV1.12B45,2013-06-28 00:46:00,
2013-06-27 20:51:00,64.6,62.8,29.52,SSW,210,2.0,3.0,94,0.00,,,0.10,0,WeatherCatV1.12B45,2013-06-28 00:51:00,
2013-06-27 20:56:00,64.6,62.8,29.52,WSW,245,2.0,2.0,94,0.00,,,0.10,0,WeatherCatV1.12B45,2013-06-28 00:56:00,
2013-06-27 21:01:00,64.5,62.7,29.52,North,355,0.0,2.0,94,0.00,,,0.10,0,WeatherCatV1.12B45,2013-06-28 01:01:00,
2013-06-27 21:06:00,64.5,62.7,29.52,NW,309,0.0,2.0,94,0.00,,,0.10,0,WeatherCatV1.12B45,2013-06-28 01:06:00,
2013-06-27 21:11:00,64.5,62.7,29.52,NW,309,3.0,3.0,94,0.00,,,0.10,0,WeatherCatV1.12B45,2013-06-28 01:11:00,
2013-06-27 21:16:00,64.4,62.6,29.52,NW,325,0.0,1.0,94,0.00,,,0.10,0,WeatherCatV1.12B45,2013-06-28 01:16:00,
2013-06-27 21:21:00,64.4,62.6,29.52,North,355,0.0,4.0,94,0.00,,,0.10,0,WeatherCatV1.12B45,2013-06-28 01:21:00,
2013-06-27 21:26:00,64.4,62.6,29.52,North,355,0.0,1.0,94,0.00,,,0.10,0,WeatherCatV1.12B45,2013-06-28 01:26:00,
2013-06-27 21:31:00,64.3,62.5,29.52,North,355,0.0,1.0,94,0.00,,,0.10,0,WeatherCatV1.12B45,2013-06-28 01:31:00,
2013-06-27 21:36:00,64.3,62.5,29.52,North,355,0.0,1.0,94,0.00,,,0.10,0,WeatherCatV1.12B45,2013-06-28 01:36:00,
2013-06-27 21:41:00,64.3,62.5,29.52,NNW,334,0.0,1.0,94,0.00,,,0.10,0,WeatherCatV1.12B45,2013-06-28 01:41:00,
2013-06-27 21:46:00,64.3,62.5,29.52,NNW,334,0.0,3.0,94,0.00,,,0.10,0,WeatherCatV1.12B45,2013-06-28 01:46:00,
2013-06-27 21:51:00,64.3,62.5,29.52,NNW,334,0.0,1.0,94,0.00,,,0.10,0,WeatherCatV1.12B45,2013-06-28 01:51:00,
2013-06-27 21:56:00,64.3,62.5,29.53,NNW,334,0.0,0.0,94,0.00,,,0.10,0,WeatherCatV1.12B45,2013-06-28 01:56:00,
2013-06-27 22:01:00,64.3,62.5,29.53,NNW,333,1.0,1.0,94,0.00,,,0.10,0,WeatherCatV1.12B45,2013-06-28 02:01:00,
2013-06-27 22:06:00,64.3,62.5,29.52,NNW,348,1.0,2.0,94,0.00,,,0.10,0,WeatherCatV1.12B45,2013-06-28 02:06:00,
2013-06-27 22:11:00,64.2,62.4,29.52,North,349,1.0,2.0,94,0.00,,,0.10,0,WeatherCatV1.12B45,2013-06-28 02:11:00,
2013-06-27 22:16:00,64.2,62.4,29.53,NNW,348,0.0,2.0,94,0.00,,,0.10,0,WeatherCatV1.12B45,2013-06-28 02:16:00,
2013-06-27 22:21:00,64.2,62.4,29.53,NNW,348,0.0,1.0,94,0.00,,,0.10,0,WeatherCatV1.12B45,2013-06-28 02:21:00,
2013-06-27 22:26:00,64.2,62.4,29.52,NNW,348,0.0,1.0,94,0.00,,,0.10,0,WeatherCatV1.12B45,2013-06-28 02:26:00,
2013-06-27 22:31:00,64.2,62.4,29.52,NNW,348,0.0,1.0,94,0.00,,,0.10,0,WeatherCatV1.12B45,2013-06-28 02:31:00,
2013-06-27 22:36:00,64.2,62.4,29.52,NNW,348,0.0,0.0,94,0.00,,,0.10,0,WeatherCatV1.12B45,2013-06-28 02:36:00,
2013-06-27 22:41:00,64.2,62.4,29.51,NW,319,0.0,1.0,94,0.00,,,0.10,0,WeatherCatV1.12B45,2013-06-28 02:41:00,
2013-06-27 22:46:00,64.2,62.4,29.51,North,355,4.0,5.0,94,0.00,,,0.10,0,WeatherCatV1.12B45,2013-06-28 02:46:00,
2013-06-27 22:51:00,64.2,62.4,29.51,NNW,340,0.0,0.0,94,0.00,,,0.10,0,WeatherCatV1.12B45,2013-06-28 02:51:00,
2013-06-27 22:56:00,64.2,62.4,29.51,NNW,340,0.0,1.0,94,0.00,,,0.10,0,WeatherCatV1.12B45,2013-06-28 02:56:00,
2013-06-27 23:01:00,64.2,62.4,29.51,NNW,340,0.0,2.0,94,0.00,,,0.10,0,WeatherCatV1.12B45,2013-06-28 03:01:00,
2013-06-27 23:06:00,64.2,62.4,29.50,NNW,330,0.0,1.0,94,0.00,,,0.10,0,WeatherCatV1.12B45,2013-06-28 03:06:00,
2013-06-27 23:11:00,64.2,62.4,29.50,NNW,330,0.0,1.0,94,0.00,,,0.10,0,WeatherCatV1.12B45,2013-06-28 03:11:00,
2013-06-27 23:16:00,64.1,62.3,29.51,WNW,303,1.0,2.0,94,0.00,,,0.10,0,WeatherCatV1.12B45,2013-06-28 03:16:00,
2013-06-27 23:21:00,64.1,62.3,29.50,WNW,303,0.0,1.0,94,0.00,,,0.10,0,WeatherCatV1.12B45,2013-06-28 03:21:00,
2013-06-27 23:26:00,64.1,62.3,29.50,SW,232,0.0,1.0,94,0.00,,,0.10,0,WeatherCatV1.12B45,2013-06-28 03:26:00,
2013-06-27 23:31:00,64.1,62.3,29.50,North,0,0.0,1.0,94,0.00,,,0.10,0,WeatherCatV1.12B45,2013-06-28 03:31:00,
2013-06-27 23:36:00,64.1,62.6,29.50,North,355,1.0,2.0,95,0.00,,,0.10,0,WeatherCatV1.12B45,2013-06-28 03:36:00,
2013-06-27 23:41:00,64.1,62.6,29.50,North,355,1.0,3.0,95,0.00,,,0.10,0,WeatherCatV1.12B45,2013-06-28 03:41:00,
2013-06-27 23:46:00,64.0,62.2,29.49,NNW,348,0.0,1.0,94,0.00,,,0.10,0,WeatherCatV1.12B45,2013-06-28 03:46:00,
2013-06-27 23:51:00,64.0,62.2,29.50,North,355,0.0,4.0,94,0.00,,,0.10,0,WeatherCatV1.12B45,2013-06-28 03:51:00,
2013-06-27 23:56:00,64.0,62.2,29.50,West,281,0.0,4.0,94,0.00,,,0.10,0,WeatherCatV1.12B45,2013-06-28 03:56:00,